This is the latest recevied weather packets stored in our database for station/object WX7FGZ-7. If no packets are shown the sender has not sent any weather packets the latest 1 day(s).
| Time | Temp. | Humidity | Pressure | Rain* | Wind** | Luminosity | Snow |
|---|---|---|---|---|---|---|---|
| 1778095006 | 23.33° C | 23% | 1017.4 hPa | 0 mm | - | - | - |
| 1778093806 | 22.78° C | 25% | 1017.6 hPa | 0 mm | - | - | - |
| 1778093506 | 22.78° C | 26% | 1017.7 hPa | 0 mm | - | - | - |
| 1778092909 | 22.22° C | 26% | 1017.8 hPa | 0 mm | - | - | - |
| 1778092155 | 21.11° C | 27% | 1017.8 hPa | 0 mm | - | - | - |
| 1778092006 | 21.11° C | 27% | 1017.8 hPa | 0 mm | - | - | - |
| 1778090333 | 21.11° C | 29% | 1018.2 hPa | 0 mm | - | - | - |
| 1778090253 | 20.56° C | 28% | 1018.3 hPa | 0 mm | - | - | - |
| 1778089927 | 20.56° C | 30% | 1018.1 hPa | 0 mm | - | - | - |
| 1778089733 | 20.56° C | 30% | 1018.1 hPa | 0 mm | - | - | - |
| 1778089164 | 21.11° C | 27% | 1018.4 hPa | 0 mm | - | - | - |
| 1778088089 | 20° C | 28% | 1018.2 hPa | 0 mm | - | - | - |
| 1778087214 | 19.44° C | 30% | 1018.1 hPa | 0 mm | - | - | - |
| 1778087033 | 19.44° C | 30% | 1018.1 hPa | 0 mm | - | - | - |
| 1778086133 | 18.89° C | 29% | 1018.1 hPa | 0 mm | - | - | - |
| 1778084635 | 18.33° C | 32% | 1018.1 hPa | 0 mm | - | - | - |
| 1778084333 | 17.78° C | 32% | 1018 hPa | 0 mm | - | - | - |
| 1778083745 | 17.78° C | 33% | 1017.9 hPa | 0 mm | - | - | - |
| 1778083138 | 17.78° C | 33% | 1018 hPa | 0 mm | - | - | - |
| 1778081633 | 17.22° C | 34% | 1017.2 hPa | 0 mm | - | - | - |
| 1778081333 | 16.67° C | 35% | 1017.2 hPa | 0 mm | - | - | - |
| 1778080733 | 16.11° C | 35% | 1017.2 hPa | 0 mm | - | - | - |
| 1778079878 | 15.56° C | 36% | 1017.1 hPa | 0 mm | - | - | - |
| 1778079423 | 15.56° C | 36% | 1017 hPa | 0 mm | - | - | - |
| 1778078822 | 15° C | 37% | 1017.1 hPa | 0 mm | - | - | - |
* Rain latest hour (hover to see other rain measurements)
** Current wind speed in m/s (hover to see current wind gust speed)